Buena Ventura Lakes, Florida
Current Conditions -  °F | °C
As of 8:50 PM on Saturday 25 Oct 2014 (Local Time) from KISM Reporting Station
Clear Clear  
Wind Chill: 72°   Ceiling: Unl
Heat Index: 72°   Visibility: 10mi
Dew Point: 55°   Wind: 3mph
Humidity: 57%   Direction: 360°N
Pressure: 29.99"   Gusts: NA
Location:  28.34°N, 81.35°W
Report Text: KISM 260050Z 36003KT 10SM SKC 22/13 A2999
Loading
Personal Weather Stations






























Interactive Weather Map
Tropical Storm Tracking
New forecast layout! Learn more

10-Day Weather Forecast

Advertisements
Track Severe Weather on mobile